Weather Roundup
Issued by NWS Springfield, MO

Home | Current Version | Previous Version | Text Only | Print | Product List | Glossary On
Versions: 1 2 3 4 5 6 7 8 9 10 11 12 13 14 15 16 17 18 19 20 21 22 23 24 25 26 27 28 29 30 31 32 33 34 35 36 37 38 39 40 41 42 43 44 45 46 47 48 49 50
000
NZUS99 KSGF 020707
HRRSGF

HOURLY WEATHER
NATIONAL WEATHER SERVICE SPRINGFIELD MO
200 AM CDT THU OCT 02 2014

......SGF CWA......

CITY           SKY/WX    TMP DP  RH WIND       PRES   REMARKS
SPRINGFIELD    CLEAR     73  67  81 S16       29.80F
JOPLIN         CLEAR     75  68  78 S15       29.76F
WEST PLAINS    CLEAR     71  66  84 S9        29.88F
ROLLA          MOCLDY    72  67  84 S10       29.82R
OSAGE BEACH    PTCLDY    72  64  78 S5        29.80S
BRANSON        PTCLDY    72  68  88 S6        29.85S

......SURROUNDING SGF CWA......

CITY           SKY/WX    TMP DP  RH WIND       PRES   REMARKS
CHANUTE        CLOUDY    73  69  87 S8        29.73F
PARSONS        MOCLDY    74  70  87 S6        29.73F
COFFEYVILLE    MOCLDY    76  70  82 S12       29.71F
EMPORIA        PTCLDY    64  64 100 N3        29.72S FOG
GROVE OK       PTCLDY    75  70  83 S5        29.77F
ROGERS AR      PTCLDY    74  67  78 SE13      29.82F
SILOAM SPRINGS PTCLDY    73  64  73 SE9       29.81F
HARRISON AR    MOCLDY    73  68  84 SE7       29.85F
NEAR YELLVILLE CLEAR     72  64  78 E3        29.85S

......KANSAS AND MISSOURI......

CITY           SKY/WX    TMP DP  RH WIND       PRES   REMARKS
KANSAS CTY INT TSTM      66  64  93 VRB6      29.77R FOG
DOWNTOWN KC    MOCLDY    69  65  86 SE5       29.74S
COLUMBIA       TSTM      63  62  97 NE10      29.86F FOG
SEDALIA        CLOUDY    66  64  93 E10       29.80F
ST JOSEPH      PTCLDY    63  62  97 CALM      29.75F
ST LOUIS       CLOUDY    70  66  88 E7        29.86S
SPIRIT OF STL  CLOUDY    68  67  96 E6        29.84R
KIRKSVILLE     CLOUDY    65  65 100 S9        29.78F FOG
WICHITA        PTCLDY    70  58  65 CALM      29.71F
TOPEKA         MOCLDY    68  67  96 NE3       29.74S
OLATHE         PTCLDY    65  63  93 SE9       29.74F

......TENNESSEE......

CITY           SKY/WX    TMP DP  RH WIND       PRES   REMARKS
MEMPHIS        CLEAR     73  63  70 S7        29.91R
NASHVILLE      CLEAR     64  58  80 S6        29.98S

......ARKANSAS.......

CITY           SKY/WX    TMP DP  RH WIND       PRES   REMARKS
FAYETTEVILLE   CLEAR     74  69  85 S9        29.82F
FT SMITH       PTCLDY    73  68  84 E3        29.80F
LITTLE ROCK    CLEAR     74  68  81 S7        29.87R

......OKLAHOMA.......

CITY           SKY/WX    TMP DP  RH WIND       PRES   REMARKS
TULSA          CLOUDY    78  70  76 S15G24    29.70F
PONCA CITY     MOCLDY    79  66  64 S9G20     29.69F
MCALESTER      MOCLDY    78  70  76 S10G20    29.77S
OKLAHOMA CITY  TSTM      78  67  68 S12G20    29.73R

......IOWA............

CITY           SKY/WX    TMP DP  RH WIND       PRES   REMARKS
DES MOINES     FOG       63  62  97 E3        29.80R VSB 1/8
QUAD CITIES    CLOUDY    64  61  90 CALM      29.82R FOG

......ILLINOIS........

CITY           SKY/WX    TMP DP  RH WIND       PRES   REMARKS
QUINCY         TSTM      66  65  96 W6        29.87R FOG
CHICAGO        CLOUDY    64  56  75 SE8       29.88F



USA.gov is the U.S. government's official web portal to all federal, state and local government web resources and services.